IGO5259 VOHS-VABB

Flight info

Callsign IGO5259
Flight time 0h 57m
Altitude 34000
Route TAMIV5 APUSU W18 OPAKA EMRAK2A
Aircraft A21N/M-SDE2E3FGHIRWXY/LB1

Departure

Time 2026-04-25 09:25
Airport Rajiv Gandhi International Airport (VOHS)

Arrival

Time 2026-04-25 10:22
Airport Chhatrapati Shivaji Maharaj International Airport (VABB)
Time Latitude Longitude Altitude Speed Heading
2026-04-25 08:55 17.23561 78.43551 1982 ft 0 kts 271°
2026-04-25 09:08 17.23561 78.43561 1980 ft 4 kts 269°
2026-04-25 09:08 17.23564 78.43589 1980 ft 4 kts 253°
2026-04-25 09:08 17.23575 78.43611 1983 ft 4 kts 206°
2026-04-25 09:08 17.23585 78.43614 1981 ft 0 kts 179°
2026-04-25 09:11 17.23583 78.43614 1982 ft 1 kts 179°
2026-04-25 09:11 17.23569 78.43614 1980 ft 3 kts 180°
2026-04-25 09:11 17.23536 78.43615 1980 ft 6 kts 179°
2026-04-25 09:12 17.23482 78.43615 1982 ft 9 kts 178°
2026-04-25 09:12 17.23411 78.43617 1980 ft 12 kts 179°
2026-04-25 09:12 17.23355 78.43669 1981 ft 12 kts 126°
2026-04-25 09:12 17.23299 78.43695 1983 ft 14 kts 174°
2026-04-25 09:13 17.23220 78.43698 1980 ft 8 kts 179°
2026-04-25 09:13 17.23206 78.43698 1983 ft 0 kts 179°
2026-04-25 09:13 17.23204 78.43698 1983 ft 1 kts 179°
2026-04-25 09:13 17.23201 78.43698 1982 ft 0 kts 179°
2026-04-25 09:18 17.23188 78.43698 1982 ft 4 kts 179°
2026-04-25 09:18 17.23141 78.43699 1982 ft 9 kts 179°
2026-04-25 09:18 17.23093 78.43750 1981 ft 13 kts 97°
2026-04-25 09:18 17.23094 78.43862 1980 ft 18 kts 89°
2026-04-25 09:19 17.23096 78.44007 1981 ft 22 kts 89°
2026-04-25 09:19 17.23099 78.44174 1983 ft 21 kts 89°
2026-04-25 09:19 17.23070 78.44295 1981 ft 14 kts 150°
2026-04-25 09:19 17.23022 78.44303 1981 ft 0 kts 176°
2026-04-25 09:22 17.22999 78.44305 1982 ft 6 kts 176°
2026-04-25 09:23 17.22935 78.44309 1981 ft 12 kts 182°
2026-04-25 09:23 17.22898 78.44258 1980 ft 0 kts 268°
2026-04-25 09:24 17.22898 78.44242 1980 ft 15 kts 268°
2026-04-25 09:24 17.22892 78.43856 1980 ft 88 kts 269°
2026-04-25 09:24 17.22879 78.42994 1981 ft 147 kts 269°
2026-04-25 09:24 17.22859 78.41768 2100 ft 180 kts 269°
2026-04-25 09:25 17.22839 78.40486 2810 ft 176 kts 270°
2026-04-25 09:25 17.22828 78.39202 3404 ft 177 kts 269°
2026-04-25 09:25 17.22811 78.37915 3898 ft 179 kts 269°
2026-04-25 09:25 17.22792 78.36546 4054 ft 198 kts 269°
2026-04-25 09:26 17.22770 78.35033 4186 ft 218 kts 270°
2026-04-25 09:26 17.22746 78.33384 4310 ft 236 kts 269°
2026-04-25 09:26 17.22987 78.31623 4420 ft 254 kts 288°
2026-04-25 09:26 17.23525 78.29777 4555 ft 276 kts 287°
2026-04-25 09:27 17.24107 78.27812 4824 ft 292 kts 288°
2026-04-25 09:27 17.24731 78.25710 4949 ft 313 kts 288°
2026-04-25 09:27 17.25391 78.23470 5110 ft 329 kts 288°
2026-04-25 09:27 17.26070 78.21149 5526 ft 336 kts 287°
2026-04-25 09:28 17.26753 78.18811 6066 ft 338 kts 287°
2026-04-25 09:28 17.27437 78.16460 6634 ft 338 kts 287°
2026-04-25 09:28 17.28119 78.14117 7372 ft 329 kts 288°
2026-04-25 09:28 17.28765 78.11898 8554 ft 309 kts 288°
2026-04-25 09:29 17.29380 78.09775 9467 ft 302 kts 287°
2026-04-25 09:29 17.29989 78.07676 10101 ft 303 kts 288°
2026-04-25 09:29 17.30605 78.05554 10631 ft 306 kts 288°
2026-04-25 09:29 17.31229 78.03405 11179 ft 309 kts 288°
2026-04-25 09:30 17.31854 78.01247 11736 ft 312 kts 288°
2026-04-25 09:30 17.32484 77.99065 12300 ft 315 kts 288°
2026-04-25 09:30 17.33120 77.96861 12856 ft 318 kts 288°
2026-04-25 09:30 17.33756 77.94669 13394 ft 321 kts 287°
2026-04-25 09:31 17.34412 77.92414 13817 ft 329 kts 287°
2026-04-25 09:31 17.35095 77.90061 13909 ft 347 kts 287°
2026-04-25 09:31 17.35814 77.87575 13954 ft 366 kts 287°
2026-04-25 09:31 17.36563 77.84983 14191 ft 377 kts 287°
2026-04-25 09:32 17.37328 77.82344 14595 ft 381 kts 287°
2026-04-25 09:32 17.38099 77.79680 15057 ft 383 kts 287°
2026-04-25 09:32 17.38870 77.77009 15569 ft 384 kts 287°
2026-04-25 09:32 17.39642 77.74327 16089 ft 385 kts 287°
2026-04-25 09:33 17.40415 77.71646 16632 ft 384 kts 287°
2026-04-25 09:33 17.41186 77.68967 17168 ft 384 kts 286°
2026-04-25 09:33 17.41955 77.66292 17714 ft 384 kts 286°
2026-04-25 09:33 17.42726 77.63609 18197 ft 385 kts 286°
2026-04-25 09:34 17.43499 77.60918 18594 ft 387 kts 285°
2026-04-25 09:34 17.44043 77.58157 18958 ft 388 kts 277°
2026-04-25 09:34 17.44399 77.55345 19329 ft 390 kts 276°
2026-04-25 09:34 17.44758 77.52528 19712 ft 392 kts 276°
2026-04-25 09:35 17.45121 77.49692 20089 ft 394 kts 276°
2026-04-25 09:35 17.45485 77.46843 20463 ft 396 kts 276°
2026-04-25 09:35 17.45848 77.43981 20840 ft 397 kts 276°
2026-04-25 09:35 17.46213 77.41106 21209 ft 399 kts 275°
2026-04-25 09:36 17.46518 77.38708 21506 ft 400 kts 275°
2026-04-25 09:36 17.46888 77.35814 21856 ft 402 kts 275°
2026-04-25 09:36 17.47258 77.32908 22206 ft 403 kts 275°
2026-04-25 09:36 17.47630 77.29992 22548 ft 405 kts 275°
2026-04-25 09:37 17.48119 77.27082 22898 ft 409 kts 283°
2026-04-25 09:37 17.49310 77.24353 23231 ft 417 kts 298°
2026-04-25 09:37 17.50888 77.21789 23531 ft 420 kts 299°
2026-04-25 09:37 17.52495 77.19224 23809 ft 422 kts 300°
2026-04-25 09:38 17.54121 77.16655 24099 ft 424 kts 300°
2026-04-25 09:38 17.55752 77.14080 24400 ft 425 kts 299°
2026-04-25 09:38 17.57385 77.11496 24710 ft 426 kts 299°
2026-04-25 09:38 17.59019 77.08902 25005 ft 427 kts 299°
2026-04-25 09:39 17.60650 77.06297 25305 ft 428 kts 298°
2026-04-25 09:39 17.62281 77.03680 25595 ft 429 kts 298°
2026-04-25 09:39 17.63910 77.01059 25878 ft 431 kts 298°
2026-04-25 09:40 17.67197 76.95788 26508 ft 432 kts 298°
2026-04-25 09:40 17.68849 76.93149 26811 ft 433 kts 298°
2026-04-25 09:40 17.70503 76.90503 27104 ft 434 kts 298°
2026-04-25 09:40 17.72114 76.87925 27389 ft 436 kts 298°
2026-04-25 09:41 17.73775 76.85262 27669 ft 437 kts 297°
2026-04-25 09:41 17.75440 76.82591 27958 ft 438 kts 297°
2026-04-25 09:41 17.77111 76.79914 28243 ft 439 kts 297°
2026-04-25 09:41 17.78786 76.77229 28521 ft 440 kts 297°
2026-04-25 09:42 17.80463 76.74535 28786 ft 441 kts 297°
2026-04-25 09:42 17.82145 76.71833 29047 ft 443 kts 297°
2026-04-25 09:42 17.83832 76.69124 29319 ft 444 kts 297°
2026-04-25 09:42 17.85526 76.66408 29566 ft 445 kts 297°
2026-04-25 09:43 17.87083 76.63905 29783 ft 446 kts 297°
2026-04-25 09:43 17.88778 76.61171 30007 ft 447 kts 296°
2026-04-25 09:43 17.90470 76.58436 30192 ft 448 kts 296°
2026-04-25 09:43 17.92172 76.55688 30366 ft 449 kts 296°
2026-04-25 09:44 17.93880 76.52932 30528 ft 451 kts 296°
2026-04-25 09:44 17.95570 76.50207 30685 ft 452 kts 296°
2026-04-25 09:44 17.97307 76.47413 30949 ft 450 kts 297°
2026-04-25 09:44 17.99226 76.44844 31224 ft 457 kts 306°
2026-04-25 09:45 18.01534 76.42515 31417 ft 461 kts 309°
2026-04-25 09:45 18.03501 76.39952 31621 ft 444 kts 293°
2026-04-25 09:45 18.05019 76.37135 31797 ft 443 kts 292°
2026-04-25 09:45 18.06513 76.34304 31993 ft 443 kts 292°
2026-04-25 09:46 18.08018 76.31478 32196 ft 443 kts 292°
2026-04-25 09:46 18.09548 76.28661 32399 ft 444 kts 292°
2026-04-25 09:46 18.11103 76.25855 32607 ft 444 kts 293°
2026-04-25 09:46 18.12668 76.23061 32812 ft 444 kts 293°
2026-04-25 09:47 18.14242 76.20265 33015 ft 444 kts 293°
2026-04-25 09:47 18.15817 76.17469 33220 ft 444 kts 293°
2026-04-25 09:47 18.17391 76.14673 33429 ft 444 kts 293°
2026-04-25 09:47 18.18960 76.11877 33652 ft 444 kts 292°
2026-04-25 09:48 18.20522 76.09081 33864 ft 443 kts 292°
2026-04-25 09:48 18.22076 76.06294 33927 ft 439 kts 292°
2026-04-25 09:48 18.25138 76.00797 33934 ft 434 kts 292°
2026-04-25 09:49 18.28174 75.95326 33931 ft 433 kts 292°
2026-04-25 09:49 18.31213 75.89849 33926 ft 433 kts 292°
2026-04-25 09:50 18.34255 75.84372 33931 ft 433 kts 292°
2026-04-25 09:50 18.37300 75.78892 33936 ft 434 kts 292°
2026-04-25 09:51 18.40346 75.73411 33945 ft 433 kts 292°
2026-04-25 09:51 18.43377 75.67938 33947 ft 432 kts 292°
2026-04-25 09:52 18.46400 75.62470 33942 ft 432 kts 292°
2026-04-25 09:52 18.49416 75.57013 33939 ft 431 kts 292°
2026-04-25 09:53 18.52430 75.51552 33938 ft 431 kts 292°
2026-04-25 09:53 18.55443 75.46091 33938 ft 431 kts 292°
2026-04-25 09:54 18.58455 75.40636 33948 ft 430 kts 292°
2026-04-25 09:54 18.61462 75.35192 33935 ft 429 kts 292°
2026-04-25 09:55 18.64438 75.29793 33932 ft 428 kts 292°
2026-04-25 09:55 18.65764 75.27019 33930 ft 417 kts 282°
2026-04-25 09:55 18.66709 75.24094 33934 ft 416 kts 281°
2026-04-25 09:56 18.68226 75.19293 33929 ft 415 kts 281°
2026-04-25 09:56 18.70042 75.13508 33893 ft 416 kts 281°
2026-04-25 09:57 18.71244 75.09684 33547 ft 414 kts 281°
2026-04-25 09:57 18.72149 75.06810 33293 ft 412 kts 281°
2026-04-25 09:57 18.73052 75.03948 33036 ft 410 kts 281°
2026-04-25 09:57 18.73948 75.01099 32785 ft 408 kts 281°
2026-04-25 09:58 18.74838 74.98262 32536 ft 406 kts 281°
2026-04-25 09:58 18.75722 74.95437 32289 ft 405 kts 281°
2026-04-25 09:58 18.76316 74.93540 32125 ft 403 kts 281°
2026-04-25 09:58 18.77194 74.90733 31888 ft 402 kts 281°
2026-04-25 09:59 18.78067 74.87937 31642 ft 400 kts 281°
2026-04-25 09:59 18.78938 74.85150 31400 ft 399 kts 281°
2026-04-25 09:59 18.79807 74.82375 31167 ft 397 kts 281°
2026-04-25 09:59 18.80673 74.79610 30932 ft 396 kts 281°
2026-04-25 10:00 18.81526 74.76892 30702 ft 395 kts 281°
2026-04-25 10:00 18.82384 74.74147 30485 ft 393 kts 281°
2026-04-25 10:00 18.83232 74.71435 30134 ft 386 kts 281°
2026-04-25 10:00 18.84067 74.68767 29869 ft 377 kts 282°
2026-04-25 10:01 18.84886 74.66136 29612 ft 379 kts 282°
2026-04-25 10:01 18.85701 74.63493 29148 ft 379 kts 282°
2026-04-25 10:01 18.86519 74.60845 28685 ft 378 kts 282°
2026-04-25 10:01 18.87336 74.58217 28226 ft 377 kts 283°
2026-04-25 10:02 18.88154 74.55589 27775 ft 376 kts 283°
2026-04-25 10:02 18.88970 74.52966 27319 ft 375 kts 283°
2026-04-25 10:02 18.89782 74.50350 26865 ft 374 kts 283°
2026-04-25 10:02 18.90593 74.47740 26415 ft 374 kts 284°
2026-04-25 10:03 18.91402 74.45136 25968 ft 373 kts 284°
2026-04-25 10:03 18.92211 74.42536 25514 ft 372 kts 285°
2026-04-25 10:03 18.93032 74.39886 25087 ft 389 kts 285°
2026-04-25 10:03 18.93879 74.37145 24628 ft 396 kts 285°
2026-04-25 10:04 18.94736 74.34370 24173 ft 399 kts 286°
2026-04-25 10:04 18.95598 74.31581 23721 ft 400 kts 287°
2026-04-25 10:04 18.96460 74.28789 23248 ft 399 kts 287°
2026-04-25 10:04 18.97319 74.26007 22803 ft 397 kts 287°
2026-04-25 10:05 18.98175 74.23240 22371 ft 395 kts 287°
2026-04-25 10:05 18.99025 74.20489 21926 ft 393 kts 287°
2026-04-25 10:05 18.99870 74.17754 21482 ft 390 kts 287°
2026-04-25 10:05 19.00708 74.15034 21035 ft 388 kts 287°
2026-04-25 10:06 19.01541 74.12327 20595 ft 386 kts 287°
2026-04-25 10:06 19.02371 74.09638 20120 ft 383 kts 287°
2026-04-25 10:06 19.03196 74.06967 19666 ft 382 kts 287°
2026-04-25 10:06 19.04013 74.04308 19187 ft 379 kts 287°
2026-04-25 10:07 19.04823 74.01665 18721 ft 377 kts 288°
2026-04-25 10:07 19.05632 73.99034 18242 ft 376 kts 287°
2026-04-25 10:07 19.06442 73.96396 17722 ft 377 kts 288°
2026-04-25 10:07 19.07245 73.93776 17236 ft 374 kts 287°
2026-04-25 10:08 19.08043 73.91169 16752 ft 372 kts 287°
2026-04-25 10:08 19.08837 73.88575 16280 ft 371 kts 289°
2026-04-25 10:08 19.09631 73.85994 15804 ft 367 kts 289°
2026-04-25 10:08 19.10419 73.83432 15326 ft 365 kts 289°
2026-04-25 10:09 19.11190 73.80918 14863 ft 363 kts 289°
2026-04-25 10:09 19.11963 73.78387 14334 ft 361 kts 289°
2026-04-25 10:09 19.12732 73.75873 13820 ft 358 kts 289°
2026-04-25 10:09 19.13500 73.73375 13268 ft 356 kts 289°
2026-04-25 10:10 19.14265 73.70898 12751 ft 353 kts 289°
2026-04-25 10:10 19.15022 73.68449 12245 ft 349 kts 289°
2026-04-25 10:10 19.15776 73.66018 11742 ft 347 kts 289°
2026-04-25 10:10 19.16521 73.63603 11220 ft 346 kts 289°
2026-04-25 10:11 19.17269 73.61174 10722 ft 349 kts 289°
2026-04-25 10:11 19.18014 73.58758 10407 ft 336 kts 289°
2026-04-25 10:11 19.18705 73.56479 10210 ft 317 kts 285°
2026-04-25 10:11 19.18878 73.54214 9891 ft 305 kts 261°
2026-04-25 10:12 19.18455 73.52083 9825 ft 290 kts 255°
2026-04-25 10:12 19.17970 73.50018 9806 ft 288 kts 255°
2026-04-25 10:12 19.16977 73.45897 9819 ft 289 kts 255°
2026-04-25 10:13 19.16481 73.43837 9818 ft 290 kts 255°
2026-04-25 10:13 19.15982 73.41758 9525 ft 292 kts 255°
2026-04-25 10:13 19.15475 73.39668 9056 ft 294 kts 255°
2026-04-25 10:13 19.14964 73.37568 8641 ft 295 kts 255°
2026-04-25 10:14 19.14442 73.35455 8142 ft 299 kts 255°
2026-04-25 10:14 19.13914 73.33329 7664 ft 299 kts 255°
2026-04-25 10:14 19.13387 73.31233 7275 ft 291 kts 255°
2026-04-25 10:14 19.12869 73.29184 6893 ft 287 kts 254°
2026-04-25 10:15 19.12374 73.27150 6513 ft 284 kts 255°
2026-04-25 10:15 19.11885 73.25142 6122 ft 279 kts 255°
2026-04-25 10:15 19.11413 73.23216 5891 ft 266 kts 255°
2026-04-25 10:15 19.10944 73.21348 5479 ft 259 kts 255°
2026-04-25 10:16 19.10479 73.19532 5094 ft 253 kts 255°
2026-04-25 10:16 19.10013 73.17753 4725 ft 249 kts 255°
2026-04-25 10:16 19.09551 73.16005 4347 ft 246 kts 256°
2026-04-25 10:16 19.09253 73.14236 3967 ft 243 kts 267°
2026-04-25 10:17 19.09194 73.12485 3792 ft 232 kts 272°
2026-04-25 10:17 19.09182 73.10830 3793 ft 222 kts 270°
2026-04-25 10:17 19.09166 73.09196 3709 ft 222 kts 271°
2026-04-25 10:17 19.09146 73.07594 3463 ft 219 kts 272°
2026-04-25 10:18 19.09125 73.06027 3199 ft 207 kts 271°
2026-04-25 10:18 19.09106 73.04521 2952 ft 203 kts 272°
2026-04-25 10:18 19.09088 73.03026 2704 ft 204 kts 271°
2026-04-25 10:18 19.09068 73.01554 2444 ft 192 kts 271°
2026-04-25 10:19 19.09050 73.00217 2237 ft 174 kts 271°
2026-04-25 10:19 19.09033 72.98961 2018 ft 167 kts 275°
2026-04-25 10:19 19.09018 72.97737 1807 ft 167 kts 274°
2026-04-25 10:19 19.09002 72.96534 1605 ft 158 kts 274°
2026-04-25 10:20 19.08987 72.95397 1391 ft 152 kts 272°
2026-04-25 10:20 19.08973 72.94263 1215 ft 157 kts 274°
2026-04-25 10:20 19.08957 72.93115 1019 ft 155 kts 274°
2026-04-25 10:20 19.08944 72.91982 835 ft 153 kts 271°
2026-04-25 10:21 19.08933 72.90878 627 ft 148 kts 270°
2026-04-25 10:21 19.08911 72.89787 478 ft 150 kts 271°
2026-04-25 10:21 19.08897 72.88691 305 ft 148 kts 271°
2026-04-25 10:21 19.08883 72.87614 98 ft 146 kts 270°
2026-04-25 10:22 19.08871 72.86599 49 ft 118 kts 269°
2026-04-25 10:22 19.08862 72.86053 47 ft 35 kts 269°
2026-04-25 10:22 19.08936 72.85862 48 ft 27 kts 301°
2026-04-25 10:22 19.08972 72.85797 49 ft 1 kts 301°
2026-04-25 10:23 19.08977 72.85789 47 ft 2 kts 301°
2026-04-25 10:23 19.08988 72.85770 49 ft 4 kts 301°
2026-04-25 10:23 19.09004 72.85742 49 ft 5 kts 301°
2026-04-25 10:23 19.09024 72.85702 49 ft 7 kts 291°
2026-04-25 10:24 19.09027 72.85647 49 ft 9 kts 269°
2026-04-25 10:24 19.09027 72.85610 49 ft 4 kts 271°
2026-04-25 10:24 19.09028 72.85585 49 ft 2 kts 270°
2026-04-25 10:24 19.09027 72.85548 49 ft 8 kts 269°
2026-04-25 10:25 19.09025 72.85474 49 ft 13 kts 269°
2026-04-25 10:25 19.09045 72.85403 49 ft 10 kts 336°
2026-04-25 10:25 19.09091 72.85459 49 ft 14 kts 85°
2026-04-25 10:25 19.09099 72.85518 49 ft 4 kts 43°
2026-04-25 10:26 19.09145 72.85525 49 ft 5 kts
2026-04-25 10:26 19.09158 72.85525 49 ft 0 kts